Regional Weather Roundup
Issued by NWS

Home | Current Version | Previous Version | Graphics & Text | Print | Product List | Glossary On
Versions: 1 2 3 4 5 6 7 8 9 10 11 12 13 14 15 16 17 18 19 20 21 22 23 24 25 26 27 28 29 30 31 32 33 34 35 36 37 38 39 40 41 42 43 44 45 46 47 48 49 50
000
ASUS45 KSLC 311310
RWRUT

UTAH REGIONAL WEATHER ROUNDUP
NATIONAL WEATHER SERVICE SALT LAKE CITY UT
700 AM MDT THU JUL 31 2014

UTZ001>011-023>025-311400-

NORTHERN UTAH

CITY           SKY/WX    TMP DP  RH WIND       PRES   REMARKS
HILL AFB       PTCLDY    60  51  72 E17G23    30.20S
LOGAN          CLEAR     54  50  86 CALM      30.23R
OGDEN          PTCLDY    61  51  70 S6        30.18S
PROVO AIRPORT  PTCLDY    59  54  82 CALM      30.21S
SALT LAKE CITY PTCLDY    63  56  78 SW3       30.17S
VERNAL         CLEAR     54  48  80 CALM      30.26S
WENDOVER       PTCLDY    70  54  56 S6        30.19S
HEBER CITY     PTCLDY    52  50  93 CALM      30.30R
WEST JORDAN    CLEAR     66  57  72 CALM      30.21R

$$

UTZ012>022-026-027-311400-

SOUTHERN UTAH

CITY           SKY/WX    TMP DP  RH WIND       PRES   REMARKS
BRYCE CANYON   CLEAR     50  46  86 W8        30.38R
CEDAR CITY     PTCLDY    57  50  77 N5        30.25R
MILFORD        PTCLDY    62  51  67 N6        30.21R
MOAB/CYNLANDS  CLEAR     64  60  87 CALM      30.15R
PRICE          PTCLDY    64  49  57 NE8       30.25S
ST GEORGE      MOSUNNY   75  46  35 SE5       30.05R

$$

REGIONAL REPORTS     COLORADO/ARIZONA

CITY           SKY/WX    TMP DP  RH WIND       PRES   REMARKS
CRAIG, CO      CLOUDY    51  51 100 CALM      30.31S
GRAND JUNCTION CLEAR     62  58  86 S5        30.19R
RIFLE          CLEAR     55  53  93 CALM      30.26R
MONTROSE       CLEAR     59  52  77 SE7       30.27R
CORTEZ         CLEAR     54  50  86 NE3       30.24R
PAGE, AZ       CLEAR     76  48  37 W3        30.12R
GRAND CANYON   CLEAR     52  47  83 NE3       30.31R
KINGMAN        MOCLDY    76  49  38 E8        30.05R
FLAGSTAFF      CLEAR     54  46  74 CALM      30.33S

$$

REGIONAL REPORTS    NEVADA/IDAHO/WYOMING

CITY           SKY/WX    TMP DP  RH WIND       PRES   REMARKS
LAS VEGAS, NV  MOCLDY    84  52  33 S9        29.93R
ELY            CLOUDY    59  51  75 CALM      30.30R
ELKO           MOCLDY    61  47  59 E5        30.21S
POCATELLO, ID  CLEAR     54  47  77 E3        30.25R
BURLEY         CLEAR     54  51  90 CALM      30.19R
EVANSTON, WY   PTCLDY    50  46  86 N10       30.37S
ROCK SPRINGS   CLEAR     49  43  80 CALM      30.37R

$$


USA.gov is the U.S. government's official web portal to all federal, state and local government web resources and services.